Regional Weather Roundup
Issued by NWS

Home | Current Version | Previous Version | Text Only | Print | Product List | Glossary On
Versions: 1 2 3 4 5 6 7 8 9 10 11 12 13 14 15 16 17 18 19 20 21 22 23 24 25 26 27 28 29 30 31 32 33 34 35 36 37 38 39 40 41 42 43 44 45 46 47 48 49 50
000
ASUS45 KPSR 282310
RWRAZ

ARIZONA HOURLY REGIONAL WEATHER ROUNDUP
NATIONAL WEATHER SERVICE PHOENIX AZ
400 PM MST THU APR 28 2016

NOTE: FAIR INDICATES FEW OR NO CLOUDS BELOW 12,000 FEET WITH NO
SIGNIFICANT WEATHER AND/OR OBSTRUCTIONS TO VISIBILITY.

AZZ001>003-036-290000-
NORTHWEST ARIZONA

CITY           SKY/WX    TMP DP  RH WIND       PRES   REMARKS
BULLHEAD CITY  PTSUNNY   70  45  40 SW7       29.72F
KINGMAN        LGT RAIN  53  44  71 N16       29.76S
$$

AZZ004>008-015-016-018-290000-
NORTH CENTRAL ARIZONA

CITY           SKY/WX    TMP DP  RH WIND       PRES   REMARKS
GRAND CANYON   LGT RAIN  37  34  89 SW6       29.80S FOG     WCI  32
WILLIAMS       CLOUDY    37  36  93 SW8       29.88S FOG     WCI  31
PRESCOTT       LGT RAIN  45  39  79 W14       29.80R
FLAGSTAFF      PTSUNNY   42  20  41 SW22G30   29.79S
PAYSON         SUNNY     57  12  17 SW17G24   29.80S
PAGE           PTSUNNY   55  36  48 NE3       29.71F
$$

AZZ009>014-017-290000-
NORTHEAST ARIZONA

CITY           SKY/WX    TMP DP  RH WIND       PRES   REMARKS
WINSLOW        MOSUNNY   60  14  16 SW25G32   29.73S
SAINT JOHNS    MOSUNNY   65  13  13 SW30G40   29.71R
WINDOW ROCK    PTSUNNY   59  13  16 SW28G38   29.75S
SHOW LOW       MOSUNNY   55  18  22 SW24G36   29.77F
$$

AZZ023-290000-
GREATER PHOENIX AREA

CITY           SKY/WX    TMP DP  RH WIND       PRES   REMARKS
PHOENIX        MOSUNNY   73  21  14 W7G21     29.68F
BUCKEYE        MOSUNNY   75  25  15 SW13      29.70F
GLENDALE       MOSUNNY   73  21  14 SW8       29.71F
LUKE AFB       SUNNY     74  25  16 SW12G18   29.68F
DEER VALLEY    SUNNY     71  21  15 SW12G18   29.69F
SCOTTSDALE     SUNNY     71  15  11 W9        29.71F
MESA-FALCON    MOSUNNY  N/A N/A N/A SW12G18   29.67F
MESA-GATEWAY   MOSUNNY   73  21  14 W13G31    29.70F
CHANDLER       MOSUNNY   75  19  12 MISG      29.69F
$$

AZZ027-028-290000-
SOUTHWEST MARICOPA COUNTY AND PINAL COUNTY

CITY           SKY/WX    TMP DP  RH WIND       PRES   REMARKS
CASA GRANDE    SUNNY     73  23  15 W17G24    29.71S
GILA BEND      SUNNY     75  26  16 SW18      29.69F
$$

AZZ503-504-507>509-290000-
SOUTHEAST ARIZONA

CITY           SKY/WX    TMP DP  RH WIND       PRES   REMARKS
TUCSON         MOSUNNY   78  25  14 W22G38    29.69F
DAVIS-MONTHAN  MOSUNNY   77  26  15 W24G33    29.66F
RYAN FIELD     MOSUNNY   79  32  18 SW22      29.69F
NOGALES        SUNNY     74  24  15 SW21G38   29.72F
SIERRA VISTA   MOSUNNY   72  21  14 S23G38    29.74F
DOUGLAS        SUNNY     77   8   7 SW30G40   29.72F
SAFFORD        MOSUNNY   76  26  15 W23G40    29.62S
$$

AZZ020-021-025-026-031-290000-
SOUTHWEST ARIZONA

CITY           SKY/WX    TMP DP  RH WIND       PRES   REMARKS
YUMA           PTSUNNY   74  39  28 W15       29.72F
$$

CAZ031-033-041-043-047-048-061-290000-
SOUTHERN CALIFORNIA

CITY           SKY/WX    TMP DP  RH WIND       PRES   REMARKS
DOWNTOWN L.A.  SUNNY     66  47  50 MISG      29.84S
L.A. AIRPORT   MOSUNNY   63  50  62 W12G21    29.86F
SAN DIEGO      MOSUNNY   64  47  53 W9G16     29.92S
BURBANK        MOSUNNY   68  37  32 S10       29.83S
ONTARIO        PTSUNNY   64  44  48 SW15      29.84S
RIVERSIDE      CLOUDY    68  43  40 W9        29.83F
PALM SPRINGS   PTSUNNY   78  37  22 NW16G33   29.71F
EL CENTRO NAS  MOSUNNY   78  36  21 SW28G35   29.74F
IMPERIAL       SUNNY     77  40  26 W23G37    29.71F
BLYTHE         MOSUNNY   75  39  27 NW10      29.69F
NEEDLES        PTSUNNY   72  42  34 VRB3      29.70S
$$

NVZ020-UTZ003-290000-
SOUTHERN NEVADA-UTAH

CITY           SKY/WX    TMP DP  RH WIND       PRES   REMARKS
LAS VEGAS      PTSUNNY   68  44  42 E10G17    29.65F
SALT LAKE CITY CLOUDY    57  35  43 N14       29.75R
$$

NMZ009-TXZ055-290000-
NEW MEXICO-WEST TEXAS

CITY           SKY/WX    TMP DP  RH WIND       PRES   REMARKS
ALBUQUERQUE    MOSUNNY   72  12  10 S17G29    29.68F
EL PASO        MOSUNNY   83  12   7 S12G24    29.68F
$$


........................KEY........................
SKY/WX - SKY CONDITION/WEATHER
TMP    - TEMPERATURE IN FAHRENHEIT
DP     - DEW POINT IN FAHRENHEIT
RH     - RELATIVE HUMIDITY IN PERCENT
WIND   - DIRECTION AND SPEED IN MILES PER HOUR (MPH)
VRB    - VARIABLE WIND DIRECTION
PRES   - MEAN SEA LEVEL PRESSURE IN INCHES OF MERCURY
         F - FALLING PRESSURE   R - RISING PRESSURE
         S - STEADY PRESSURE
VSB    - VISIBILITY IN MILES
HX     - HEAT INDEX IN FAHRENHEIT
WCI    - WIND CHILL INDEX IN FAHRENHEIT
TC     - TEMPERATURE IN CELSIUS WHICH IS ALSO KNOWN AS
         TEMPERATURE IN CENTIGRADE
AFB    - AIR FORCE BASE
         LUKE AFB IS LUKE AIR FORCE BASE
         DAVIS-MONTHAN IS DAVIS-MONTHAN AIR FORCE BASE
NAS    - NAVAL AIR STATION
         EL CENTRO NAS IS EL CENTRO NAVAL AIR STATION
N/A    - NOT AVAILABLE




USA.gov is the U.S. government's official web portal to all federal, state and local government web resources and services.